Location: Estes Par
(40.3770°N, 105.5210°W)
Time: 21:00:12
(UTC-07:00)

Tiangong 2 - Pass Details

Date: 07 October 2017
Orbit: 386 x 390 km, 42.8° (Epoch: 16 December)

Event Time Altitude Azimuth Distance (km) Brightness Sun altitude
Exits shadow 06:16:54 - 221° (SW) 1,707 3.9 -10.0°
Reaches altitude 10° 06:17:41 10° 216° (SW) 1,412 3.6 -9.8°
Maximum altitude 06:20:34 32° 152° (SSE) 696 2.7 -9.3°
Drops below altitude 10° 06:23:28 10° 87° (E) 1,421 5.6 -8.7°
Sets 06:25:40 0° 77° (ENE) 2,279 6.9 -8.3°
